sat.trackr.live / text

‹ back to catalog

STARLINK-4777

NORAD 53847 · 2022-114AF

PAYLOAD ACTIVE UNKNOWN

§ Identity

Operator
Country
US
Launch date
2022-09-19
Launch site
AFETR
Launch vehicle
Mass (kg)
RCS (m²)

Purposes: comms

External: N2YO · Heavens-Above · Gunter

§ Orbital elements

Epoch: 2026-09-20T09:01:53.234112Z

Period
95.44 min
Inclination
53.1603°
Eccentricity
0.0001516
Mean motion
15.08833607 rev/d
Perigee alt
538.7 km
Apogee alt
540.8 km
Semi-major
6,917.9 km
B*
7.0090e-5
RAAN
139.4079°
Arg perigee
95.6929°
Mean anomaly
264.4235°
Rev number
22,236

§ Raw data

STARLINK-47771 53847U 22114AF  26263.37631058  .00000827  00000+0  70090-4 0  99952 53847  53.1603 139.4079 0001516  95.6929 264.4235 15.08833607222365

JSON: /api/v1/satellites/53847 · /tle

For live sub-satellite position, see the globe view (requires WebGL).

§ Visibility from observer

Set your observer location to see the next 7 days of passes ≥ 10°. The values pass through the URL so the page stays shareable.

No JS? Fill the form by hand. The geolocation button needs JavaScript.